Regional Weather Roundup
Issued by NWS Newport/Morehead, NC

Current Version | Previous Version | Text Only | Print | Product List | Glossary Off
Versions: 1 2 3 4 5 6 7 8 9 10 11 12 13 14 15 16 17 18 19 20 21 22 23 24 25 26 27 28 29 30 31 32 33 34 35 36 37 38 39 40 41 42 43 44 45 46 47 48 49 50
000 ASUS42 KMHX 201013 RWRMHX WEATHER ROUNDUP FOR EASTERN NORTH CAROLINA NATIONAL WEATHER SERVICE NEWPORT/MOREHEAD CITY NC 600 AM EDT FRI OCT 20 2017 NOTE: "FAIR" INDICATES FEW OR NO CLOUDS BELOW 12,000 FEET WITH NO SIGNIFICANT WEATHER AND/OR OBSTRUCTIONS TO VISIBILITY NCZ015>017-031-032-045>047-102-103-201100- NORTH COAST CITY SKY/WX TMP DP RH WIND PRES REMARKS EDENTON MOCLDY 54 53 95 CALM 30.20S FOG ELIZABETH CITY FOG 53 53 100 CALM 30.20R VSB 1/4 KITTY HAWK FAIR N/A N/A N/A CALM 30.18R MANTEO FAIR N/A N/A N/A CALM 30.20R $$ NCZ045>047-081-094-103-104-201100- CENTRAL COAST CITY SKY/WX TMP DP RH WIND PRES REMARKS FRISCO FAIR 58 58 100 NW3 30.19S $$ NCZ095-097-098-100-101-201100- SOUTHERN COAST CITY SKY/WX TMP DP RH WIND PRES REMARKS BEAUFORT FAIR 54 53 97 CALM 30.21R CEDAR ISLAND NOT AVBL JACKSONVILLE FAIR 53 53 100 CALM 30.21R PINEY ISLAND N/A N/A N/A N/A W5 30.20S WILMINGTON FAIR 54 53 97 CALM 30.22R $$ NCZ011>013-027>030-043-044-078>080-089-090>093-098-201100- COASTAL PLAIN CITY SKY/WX TMP DP RH WIND PRES REMARKS AHOSKIE FAIR 43 43 100 CALM 30.20R CLINTON FAIR 48 48 100 CALM 30.23R ELIZABETHTOWN NOT AVBL GOLDSBORO FAIR 48 46 93 CALM 30.20R FOG GREENVILLE FOG 46 46 100 CALM 30.21S VSB 1/4 HAVELOCK MOCLDY 52 52 100 CALM 30.22R KENANSVILLE FAIR 45 45 100 CALM 30.22S FOG KINSTON FAIR 44 44 99 CALM 30.22S NEW BERN FAIR 53 53 100 CALM 30.22R FOG RICHLANDS FAIR 47 47 100 CALM 30.23R ROCKY MOUNT FAIR 44 44 100 CALM 30.21R WASHINGTON FAIR 51 50 97 CALM 30.21S FOG WHITEVILLE FAIR 52 51 97 CALM 30.22R $$ AMZ130-135-150-152-154-156-158-170-250-252-270-ANZ085-086-088-633-658-670-201100- MARINE OBSERVATIONS STATION/POSITION TIME TEMP WIND PRES WAVE SWELL AIR SEA DIR/SP/G HT/PER HT/PER (UTC) (F) (DEG/KT/KT) (MB) (FT/S) (FT/S) CHESAPEAKE LIGHT NOT AVBL 64 E VA BEACH 0950 68 67 260/ 8/ 10 1022.3 3/ 9 3/ 9 DUCK 0936 64 69 250/ 6/ 7 1021.8 2 E DUCK 1000 69 N/A 3/ 8 OREGON INLET 0936 62 68 300/ 1/ 1 1022.2 13E OREGON INLT 0948 71 N/A 3/ 8 3/ 8 HATTERAS CG 0936 66 70 310/ 5/ 5 1022.1 DIAMOND BUOY 0950 73 81 340/ 8/ 10 1022.0 3/ 8 3/ 8 CAPE LOOKOUT 1000 65 340/ 6/ 7 1022.5 BEAUFORT LAB 0936 62 69 10/ 2/ 2 1023.0 30 SE NEW RVR IN 0908 73 350/ 6/ 8 1022.1 30 SE NEW RVR IN NOT AVBL 27 SE WRIGHTSVLE 0908 72 76 340/ 8/ 12 1022.4 5 SE WRIGHTSVLE 0908 70 74 20/ 12/ 16 1022.5 225 S CAPE HAT 0950 77 80 40/ 14/ 16 1019.6 6/ 9 5/ 9 41 SE CHARLESTON 0950 75 79 40/ 10/ 12 1021.6 5/ 9 3/ 9 $$

USA.gov is the U.S. government's official web portal to all federal, state and local government web resources and services.